Deer Park, WA
on Friday, February 15, 2013

Friday
Previous Day Next Day
Daily Summary
 ActualAverageRecord
Temperature
Mean Temperature °F / °C 30°F / -1°C  
Max Temperature 45°F / 7°C 39°F / 4°C 48°F / 8°C (2003)
Min Temperature 15°F / -9°C 21°F / -6°C 10°F / -12°C (2005)
Degree Days
Heating Degree Days 35 35  
Month to date heating degree days 518 533  
Since 1 July heating degree days 4626 4929  
Cooling Degree Days 0 0  
Month to date cooling degree days 0 0  
Year to date cooling degree days 0 0  
Moisture
Dew Point 23°F / -5°C   
Average Humidity 79    
Maximum Humidity 100    
Minimum Humidity 58    
Precipitation
Precipitation 0.00 in / 0.00 cm 0.05 in / 1.27 cm 0.32 in / 0.81 cm (2014)
Month to date precipitation 0.03 0.95  
Year to date precipitation 1.53 3.58  
Wind
Wind Speed 1 mph / 2 km/h   
Max Wind Speed 6 mph / 10 km/h   
Max Gust Speed 7 mph / 11 km/h   
Visibility 8 miles / 14 kilometers   
Events Fog   

Key: T is trace of precipitation, MM is missing value
Source: NWS Daily Summary
Time(PST)TemperatureDew PointHumidity Pressure Visibility Wind DirectionWind SpeedGust SpeedPrecipitationEvents Conditions
12:53 AM 23.0°F / -5.0°C 21.0°F / -6.1°C 92% 30.58 in / 1035.3 hPa 10.0 miles / 16.1 kilometers Calm Calm - N/A   Clear
1:53 AM 19.9°F / -6.7°C 19.0°F / -7.2°C 96% 30.58 in / 1035.5 hPa 10.0 miles / 16.1 kilometers Calm Calm - N/A   Clear
2:53 AM 21.0°F / -6.1°C 19.0°F / -7.2°C 92% 30.59 in / 1035.8 hPa 7.0 miles / 11.3 kilometers Calm Calm - N/A   Clear
3:16 AM 19.4°F / -7.0°C 17.6°F / -8.0°C 93% 30.52 in / 1033.4 hPa 1.5 miles / 2.4 kilometers Calm Calm - N/A   Clear
3:22 AM 19.4°F / -7.0°C 19.4°F / -7.0°C 100% 30.52 in / 1033.4 hPa 0.5 miles / 0.8 kilometers Calm Calm - N/A Fog Light Freezing Fog
3:42 AM 19.4°F / -7.0°C 19.4°F / -7.0°C 100% 30.51 in / 1033.1 hPa 1.2 miles / 2.0 kilometers Calm Calm - N/A   Partly Cloudy
3:46 AM 17.6°F / -8.0°C 17.6°F / -8.0°C 100% 30.51 in / 1033.1 hPa 3.0 miles / 4.8 kilometers Calm Calm - N/A   Partly Cloudy
3:53 AM 21.0°F / -6.1°C 19.9°F / -6.7°C 96% 30.59 in / 1035.7 hPa 4.0 miles / 6.4 kilometers Calm Calm - N/A   Clear
4:53 AM 19.9°F / -6.7°C 18.0°F / -7.8°C 92% 30.59 in / 1035.8 hPa 10.0 miles / 16.1 kilometers Calm Calm - N/A   Clear
5:53 AM 16.0°F / -8.9°C 15.1°F / -9.4°C 96% 30.60 in / 1036.1 hPa 10.0 miles / 16.1 kilometers WNW 3.5 mph / 5.6 km/h - N/A   Clear
6:53 AM 15.1°F / -9.4°C 12.9°F / -10.6°C 91% 30.61 in / 1036.6 hPa 10.0 miles / 16.1 kilometers NNW 3.5 mph / 5.6 km/h - N/A   Clear
7:53 AM 19.0°F / -7.2°C 17.1°F / -8.3°C 92% 30.60 in / 1036.2 hPa 10.0 miles / 16.1 kilometers Calm Calm - N/A   Clear
8:53 AM 24.1°F / -4.4°C 24.1°F / -4.4°C 100% 30.60 in / 1036.2 hPa 10.0 miles / 16.1 kilometers Calm Calm - N/A   Clear
9:53 AM 28.9°F / -1.7°C 26.1°F / -3.3°C 89% 30.59 in / 1035.9 hPa 10.0 miles / 16.1 kilometers West 3.5 mph / 5.6 km/h - N/A   Clear
10:53 AM 34.0°F / 1.1°C 28.9°F / -1.7°C 82% 30.57 in / 1035.2 hPa 10.0 miles / 16.1 kilometers Calm Calm - N/A   Clear
11:53 AM 37.0°F / 2.8°C 30.0°F / -1.1°C 76% 30.55 in / 1034.3 hPa 10.0 miles / 16.1 kilometers WSW 3.5 mph / 5.6 km/h - N/A   Scattered Clouds
12:53 PM 39.9°F / 4.4°C 30.0°F / -1.1°C 68% 30.52 in / 1033.3 hPa 10.0 miles / 16.1 kilometers Calm Calm - N/A   Clear
1:53 PM 44.1°F / 6.7°C 30.9°F / -0.6°C 60% 30.50 in / 1032.7 hPa 10.0 miles / 16.1 kilometers Calm Calm - N/A   Clear
2:53 PM 44.1°F / 6.7°C 32.0°F / 0.0°C 63% 30.47 in / 1031.8 hPa 10.0 miles / 16.1 kilometers Calm Calm - N/A   Clear
3:53 PM 44.1°F / 6.7°C 30.9°F / -0.6°C 60% 30.45 in / 1031.1 hPa 10.0 miles / 16.1 kilometers Calm Calm - N/A   Clear
4:53 PM 41.0°F / 5.0°C 30.9°F / -0.6°C 67% 30.43 in / 1030.4 hPa 10.0 miles / 16.1 kilometers Calm Calm - N/A   Clear
5:53 PM 32.0°F / 0.0°C 28.0°F / -2.2°C 85% 30.44 in / 1030.6 hPa 10.0 miles / 16.1 kilometers Calm Calm - N/A   Clear
6:53 PM 28.0°F / -2.2°C 25.0°F / -3.9°C 88% 30.43 in / 1030.2 hPa 10.0 miles / 16.1 kilometers NW 4.6 mph / 7.4 km/h - N/A   Clear
7:53 PM 27.0°F / -2.8°C 25.0°F / -3.9°C 92% 30.40 in / 1029.4 hPa 10.0 miles / 16.1 kilometers Calm Calm - N/A   Clear
8:53 PM 28.9°F / -1.7°C 26.1°F / -3.3°C 89% 30.37 in / 1028.2 hPa 10.0 miles / 16.1 kilometers Calm Calm - N/A   Clear
9:53 PM 26.1°F / -3.3°C 24.1°F / -4.4°C 92% 30.35 in / 1027.5 hPa 10.0 miles / 16.1 kilometers North 4.6 mph / 7.4 km/h - N/A   Clear
10:53 PM 24.1°F / -4.4°C 23.0°F / -5.0°C 96% 30.34 in / 1027.2 hPa 10.0 miles / 16.1 kilometers NNW 3.5 mph / 5.6 km/h - N/A   Clear
11:53 PM 25.0°F / -3.9°C 24.1°F / -4.4°C 96% 30.32 in / 1026.7 hPa 10.0 miles / 16.1 kilometers Calm Calm - N/A   Clear
Moon Phase
Feb. 15 Feb. 17 Feb. 25 Mar. 04 Mar. 11
Sunrise:06:55 AM (PST) Moon Rise:09:04 AM (PST)2/15
Sunset:05:12 PM (PST) Moon Set:11:50 PM (PST)2/15

Copyright © 2014 The Weather Underground, Inc.